W8SZ Weather Reports


Display with metric or nautical units.
time (UTC)temp
F
wind
direction
speed
MPH
gust
MPH
rain 1hr
in
rain 24hr
in
rain mn
in
humidity
%
barometer
mb
20180920030406 62 149 6.0 0.0 0.00 0.00 0.00 95 1019.0
20180920025844 62 149 6.0 0.0 0.00 0.00 0.00 95 1018.9
20180920025333 61 148 6.0 0.0 0.00 0.00 0.00 96 1018.6
20180920024840 61 148 5.0 0.0 0.00 0.00 0.00 96 1018.5
20180920024348 61 149 5.0 0.0 0.00 0.00 0.00 96 1018.4
20180920023834 61 148 6.0 0.0 0.00 0.00 0.00 96 1018.2
20180920023342 61 149 8.0 0.0 0.00 0.00 0.00 96 1018.1
20180920022841 61 149 8.0 0.0 0.00 0.00 0.00 97 1017.7
20180920022348 61 149 7.0 0.0 0.00 0.00 0.00 97 1017.9
20180920021837 61 149 7.0 0.0 0.00 0.00 0.00 96 1017.8
20180920021339 61 151 6.0 0.0 0.00 0.00 0.00 97 1018.1
20180920020847 61 151 7.0 0.0 0.00 0.00 0.00 97 1018.4
20180920020354 61 152 6.0 0.0 0.00 0.00 0.00 97 1018.0
20180920015833 61 151 8.0 0.0 0.00 0.00 0.00 97 1017.9
20180920015401 61 151 8.0 0.0 0.00 0.00 0.00 96 1017.8
20180920014849 61 150 9.0 0.0 0.00 0.00 0.00 98 1017.8
20180920014338 61 145 9.0 0.0 0.00 0.00 0.00 97 1017.7
20180920013847 61 147 10.0 0.0 0.00 0.00 0.00 97 1017.5
20180920013355 61 149 9.0 0.0 0.00 0.00 0.00 97 1018.0
20180920012836 61 149 7.0 10.0 0.00 0.00 0.00 97 1018.0
20180920012341 61 149 8.0 10.0 0.00 0.00 0.00 97 1018.0
20180920011849 61 148 8.0 11.0 0.00 0.00 0.00 98 1017.6
20180920011358 61 149 9.0 11.0 0.00 0.00 0.00 97 1018.0
20180920010846 61 144 7.0 11.0 0.00 0.00 0.00 97 1017.7
20180920010351 61 139 8.0 11.0 0.00 0.00 0.00 97 1017.8
20180920005903 61 138 9.0 11.0 0.00 0.00 0.00 97 1017.8
20180920005350 61 131 7.0 9.0 0.00 0.00 0.00 97 1017.9
20180920004855 61 144 7.0 10.0 0.00 0.00 0.00 97 1018.2
20180920004359 61 143 8.0 10.0 0.00 0.00 0.00 97 1018.5
20180920003840 61 144 8.0 10.0 0.00 0.00 0.00 97 1017.9
20180920003407 61 142 7.0 10.0 0.00 0.00 0.00 97 1017.7
20180920002840 61 141 7.0 10.0 0.00 0.00 0.00 96 1017.8
20180920002346 61 142 7.0 9.0 0.00 0.00 0.00 97 1017.9
20180920001850 61 142 7.0 9.0 0.00 0.00 0.00 97 1018.2
20180920001339 61 142 7.0 9.0 0.00 0.00 0.00 97 1018.0
20180920000905 61 142 7.0 9.0 0.00 0.00 0.00 97 1018.5
20180920000337 61 143 7.0 9.0 0.00 0.00 0.00 97 1018.3
20180919235849 61 143 5.0 7.0 0.00 0.00 0.00 96 1018.3
20180919235353 61 143 5.0 8.0 0.00 0.00 0.00 96 1018.3
20180919234839 61 143 4.0 8.0 0.00 0.00 0.00 96 1018.2
20180919234346 61 143 5.0 7.0 0.00 0.00 0.00 96 1018.2
20180919233840 61 143 6.0 7.0 0.00 0.00 0.00 96 1018.0
20180919233411 61 143 5.0 7.0 0.00 0.00 0.00 96 1018.5
20180919232837 61 143 5.0 7.0 0.00 0.00 0.00 95 1018.2
20180919232340 61 143 5.0 7.0 0.00 0.00 0.00 96 1018.1
20180919231848 61 143 5.0 8.0 0.00 0.00 0.00 97 1018.0
20180919231351 61 143 6.0 9.0 0.00 0.00 0.00 96 1017.6
20180919230837 61 143 6.0 9.0 0.00 0.00 0.00 96 1017.7
20180919230404 61 142 6.0 8.0 0.00 0.00 0.00 97 1017.7
20180919225859 61 142 6.0 7.0 0.00 0.00 0.00 96 1017.6
20180919225343 61 142 6.0 0.0 0.00 0.00 0.00 96 1017.7
20180919224831 61 143 6.0 0.0 0.00 0.00 0.00 96 1017.9
20180919224341 61 142 5.0 0.0 0.00 0.00 0.00 96 1017.7
20180919223908 61 142 5.0 0.0 0.00 0.00 0.00 96 1017.7
20180919223354 61 142 5.0 0.0 0.00 0.00 0.00 96 1017.7
20180919222915 61 142 6.0 0.0 0.00 0.00 0.00 95 1017.7
20180919222341 61 143 6.0 0.0 0.00 0.00 0.00 96 1017.7
20180919221851 62 142 5.0 0.0 0.00 0.00 0.00 96 1017.4
20180919221339 62 143 4.0 0.0 0.00 0.00 0.00 95 1017.8
20180919220849 62 143 4.0 0.0 0.00 0.00 0.00 95 1017.6
20180919220354 62 142 5.0 0.0 0.00 0.00 0.00 95 1018.2
20180919215833 62 142 5.0 0.0 0.00 0.00 0.00 94 1018.1
20180919215342 62 142 4.0 0.0 0.00 0.00 0.00 94 1017.6
20180919214842 62 143 4.0 0.0 0.00 0.00 0.00 95 1017.7
20180919214333 62 143 5.0 0.0 0.00 0.00 0.00 95 1018.0
20180919213858 62 143 6.0 0.0 0.00 0.00 0.00 95 1017.7
20180919213346 62 143 6.0 0.0 0.00 0.00 0.00 96 1017.9
20180919212842 62 142 5.0 0.0 0.00 0.00 0.00 95 1018.2
20180919212350 62 143 6.0 0.0 0.00 0.00 0.00 95 1017.9
20180919211834 62 143 5.0 0.0 0.00 0.00 0.00 95 1018.2
20180919211344 62 143 7.0 0.0 0.00 0.00 0.00 94 1017.7
20180919210834 62 142 5.0 0.0 0.00 0.00 0.00 94 1018.0
20180919210342 62 143 6.0 0.0 0.00 0.00 0.00 95 1017.8
20180919205841 62 143 6.0 0.0 0.00 0.00 0.00 95 1017.9
20180919205348 62 142 5.0 0.0 0.00 0.00 0.00 95 1018.4
20180919204835 62 142 3.0 0.0 0.00 0.00 0.00 94 1018.0
20180919204403 62 143 5.0 0.0 0.00 0.00 0.00 94 1017.8
20180919203830 62 142 3.0 0.0 0.00 0.00 0.00 94 1017.9
20180919203416 62 142 5.0 0.0 0.00 0.00 0.00 94 1018.1
20180919202835 62 142 5.0 0.0 0.00 0.00 0.00 94 1018.3
20180919202342 62 142 7.0 0.0 0.00 0.00 0.00 93 1017.9
20180919201851 62 142 6.0 0.0 0.00 0.00 0.00 94 1017.8
20180919201336 62 143 5.0 0.0 0.00 0.00 0.00 94 1018.0
20180919200842 62 143 6.0 0.0 0.00 0.00 0.00 93 1017.9
20180919200350 62 142 6.0 0.0 0.00 0.00 0.00 94 1018.0
20180919195849 62 142 5.0 0.0 0.00 0.00 0.00 95 1018.1
20180919195335 62 143 4.0 0.0 0.00 0.00 0.00 94 1017.8
20180919194903 62 142 7.0 0.0 0.00 0.00 0.00 95 1018.0
20180919194350 62 142 5.0 0.0 0.00 0.00 0.00 94 1017.9
20180919193838 62 143 3.0 0.0 0.00 0.00 0.00 94 1018.3
20180919193427 62 143 5.0 0.0 0.00 0.00 0.00 94 1018.2
20180919192838 62 143 6.0 0.0 0.00 0.00 0.00 95 1017.9
20180919192401 62 142 6.0 0.0 0.00 0.00 0.00 95 1018.1
20180919191847 62 142 5.0 0.0 0.00 0.00 0.00 95 1018.3
20180919191333 62 141 5.0 0.0 0.00 0.00 0.00 95 1018.0
20180919190840 62 141 5.0 0.0 0.00 0.00 0.00 95 1018.0
20180919190349 62 141 7.0 0.0 0.00 0.00 0.00 94 1018.0
20180919185844 62 141 9.0 0.0 0.00 0.00 0.00 94 1018.2
20180919185351 62 141 7.0 0.0 0.00 0.00 0.00 95 1017.8
20180919184839 62 139 8.0 0.0 0.00 0.00 0.00 95 1018.3
20180919184406 62 139 10.0 0.0 0.00 0.00 0.00 95 1018.3
20180919183854 62 137 7.0 0.0 0.00 0.00 0.00 95 1018.1
20180919183424 62 133 8.0 0.0 0.00 0.00 0.00 95 1018.6
20180919182841 62 133 8.0 0.0 0.00 0.00 0.00 94 1018.2
20180919182342 62 131 6.0 0.0 0.00 0.00 0.00 95 1018.5
20180919181830 62 131 6.0 0.0 0.00 0.00 0.00 96 1018.5
20180919181340 62 130 7.0 0.0 0.00 0.00 0.00 95 1018.3
20180919180849 62 130 6.0 0.0 0.00 0.00 0.00 94 1018.3
20180919180353 62 128 8.0 0.0 0.00 0.00 0.00 95 1018.4
20180919175834 62 128 7.0 0.0 0.00 0.00 0.00 95 1018.3
20180919175341 62 128 9.0 0.0 0.00 0.00 0.00 94 1018.4
20180919174851 62 126 6.0 0.0 0.00 0.00 0.00 94 1018.5
20180919174338 62 125 8.0 0.0 0.00 0.00 0.00 94 1018.3
20180919173845 62 123 9.0 0.0 0.00 0.00 0.00 95 1018.2
20180919173353 62 122 9.0 0.0 0.00 0.00 0.00 94 1017.9
20180919172833 62 123 7.0 0.0 0.00 0.00 0.00 94 1018.3
20180919172403 63 123 8.0 0.0 0.00 0.00 0.00 94 1018.7
20180919171852 63 121 7.0 0.0 0.00 0.00 0.00 94 1018.6
20180919171337 63 118 6.0 0.0 0.00 0.00 0.00 94 1018.3
20180919170842 63 118 6.0 0.0 0.00 0.00 0.00 94 1018.6
20180919170350 63 107 7.0 0.0 0.00 0.00 0.00 94 1018.3
20180919165845 62 99 7.0 0.0 0.00 0.00 0.00 94 1018.3
20180919165350 62 96 7.0 0.0 0.00 0.00 0.00 94 1018.5
20180919164854 62 85 5.0 0.0 0.00 0.00 0.00 94 1018.3
20180919164338 63 46 8.0 0.0 0.00 0.00 0.00 94 1018.5
20180919163841 63 44 6.0 0.0 0.00 0.00 0.00 94 1018.6
20180919163404 63 43 7.0 0.0 0.00 0.00 0.00 93 1018.6
20180919162856 63 40 6.0 0.0 0.00 0.00 0.00 93 1018.6
20180919162339 63 40 3.0 0.0 0.00 0.00 0.00 93 1018.7
20180919161841 63 37 6.0 0.0 0.00 0.00 0.00 93 1019.0
20180919161345 63 31 4.0 0.0 0.00 0.00 0.00 94 1018.6
20180919160849 63 31 4.0 0.0 0.00 0.00 0.00 94 1018.7
20180919160351 63 30 6.0 0.0 0.00 0.00 0.00 94 1018.1
20180919155902 63 31 5.0 0.0 0.00 0.00 0.00 95 1018.2
20180919155359 63 31 6.0 0.0 0.00 0.00 0.00 94 1018.6
20180919154842 63 31 5.0 0.0 0.00 0.00 0.00 95 1018.6
20180919154342 63 31 8.0 0.0 0.00 0.00 0.00 95 1018.3
20180919153847 62 31 7.0 0.0 0.00 0.00 0.00 94 1018.2
20180919153349 63 34 5.0 0.0 0.00 0.00 0.00 94 1018.7
20180919152841 63 34 4.0 0.0 0.00 0.00 0.00 93 1018.2
20180919152346 63 34 6.0 0.0 0.00 0.00 0.00 93 1018.2
20180919151849 63 34 2.0 0.0 0.00 0.00 0.00 93 1018.6
20180919151351 63 34 4.0 0.0 0.00 0.00 0.00 92 1018.4
20180919150853 63 34 5.0 0.0 0.00 0.00 0.00 93 1018.4
20180919150357 63 34 5.0 0.0 0.00 0.00 0.00 93 1018.4
20180919145851 62 34 5.0 0.0 0.00 0.00 0.00 93 1018.1
20180919145353 62 34 4.0 0.0 0.00 0.00 0.00 93 1017.8
20180919144838 62 35 8.0 0.0 0.00 0.00 0.00 93 1018.1
20180919144338 62 36 10.0 0.0 0.00 0.00 0.00 95 1017.8
20180919143844 61 28 1.0 0.0 0.00 0.00 0.00 94 1017.9
20180919143409 61 28 9.0 0.0 0.00 0.00 0.00 95 1017.4
20180919142902 61 25 7.0 0.0 0.00 0.00 0.00 94 1017.8
20180919142345 61 25 0.0 0.0 0.00 0.00 0.00 94 1018.0
20180919141851 61 25 3.0 0.0 0.00 0.00 0.00 93 1017.5
20180919141415 61 25 5.0 0.0 0.00 0.00 0.00 93 1017.5
20180919140836 61 25 7.0 0.0 0.00 0.00 0.00 92 1018.0
20180919140423 61 25 6.0 0.0 0.00 0.00 0.00 93 1017.5
20180919135850 60 25 5.0 0.0 0.00 0.00 0.00 94 1017.1
20180919135353 60 25 6.0 8.0 0.00 0.00 0.00 94 1017.3
20180919134854 59 25 5.0 6.0 0.00 0.00 0.00 95 1017.5
20180919134353 59 25 2.0 6.0 0.00 0.00 0.00 95 1017.5
20180919133853 59 25 1.0 6.0 0.00 0.00 0.00 94 1017.4
20180919133355 59 25 1.0 7.0 0.00 0.00 0.00 94 1017.6
20180919132843 59 25 5.0 7.0 0.00 0.00 0.00 95 1017.3
20180919132403 59 25 4.0 7.0 0.00 0.00 0.00 97 1017.3
20180919131844 58 25 2.0 7.0 0.00 0.00 0.00 97 1017.1
20180919131347 58 25 4.0 7.0 0.00 0.00 0.00 100 1017.6
20180919130850 57 25 1.0 5.0 0.00 0.00 0.00 100 1017.5
20180919130404 56 25 2.0 5.0 0.00 0.00 0.00 100 1017.6
20180919125345 55 25 0.0 0.0 0.00 0.00 0.00 100 1017.4
20180919124849 55 25 0.0 0.0 0.00 0.00 0.00 100 1017.4
20180919124353 55 25 0.0 0.0 0.00 0.00 0.00 100 1017.2
20180919123857 55 25 0.0 0.0 0.00 0.00 0.00 100 1017.6
20180919123420 54 25 0.0 0.0 0.00 0.00 0.00 100 1017.0
20180919122850 54 25 2.0 0.0 0.00 0.00 0.00 100 1017.4
20180919122355 54 25 0.0 0.0 0.00 0.00 0.00 100 1016.9
20180919121838 54 25 3.0 0.0 0.00 0.00 0.00 100 1017.2
20180919121342 54 25 0.0 0.0 0.00 0.00 0.00 100 1017.4
20180919120846 54 25 0.0 0.0 0.00 0.00 0.00 100 1017.2
20180919120359 54 25 3.0 0.0 0.00 0.00 0.00 100 1017.3
20180919115848 54 25 1.0 0.0 0.00 0.00 0.00 100 1017.0
20180919115345 54 25 0.0 0.0 0.00 0.00 0.00 100 1017.1
20180919114844 53 25 0.0 0.0 0.00 0.00 0.00 100 1017.1
20180919114407 53 25 0.0 0.0 0.00 0.00 0.00 100 1016.9
20180919113847 53 25 0.0 0.0 0.00 0.00 0.00 100 1017.1
20180919113350 53 25 2.0 0.0 0.00 0.00 0.00 100 1017.0
20180919112902 53 25 0.0 0.0 0.00 0.00 0.00 100 1016.9
20180919112346 53 25 0.0 0.0 0.00 0.00 0.00 100 1016.9
20180919111909 53 25 1.0 0.0 0.00 0.00 0.00 100 1016.8
20180919111411 53 25 0.0 0.0 0.00 0.00 0.00 100 1016.7
20180919110849 53 25 0.0 0.0 0.00 0.00 0.00 100 1016.5
20180919110354 53 25 1.0 0.0 0.00 0.00 0.00 100 1016.5
20180919105849 53 25 0.0 0.0 0.00 0.00 0.00 100 1016.5
20180919105352 53 25 1.0 0.0 0.00 0.00 0.00 100 1016.8
20180919104854 53 25 0.0 0.0 0.00 0.00 0.00 100 1016.4
20180919104339 53 25 0.0 0.0 0.00 0.00 0.00 100 1016.3
20180919103900 53 25 0.0 0.0 0.00 0.00 0.00 100 1016.5
20180919103402 52 25 0.0 0.0 0.00 0.00 0.00 100 1016.4
20180919102853 52 25 0.0 0.0 0.00 0.00 0.00 100 1016.2
20180919102337 53 25 0.0 0.0 0.00 0.00 0.00 100 1016.6
20180919101841 53 25 0.0 0.0 0.00 0.00 0.00 100 1016.5
20180919101345 53 25 0.0 0.0 0.00 0.00 0.00 100 1016.5
20180919100849 53 25 3.0 0.0 0.00 0.00 0.00 100 1016.3
20180919100426 53 25 1.0 0.0 0.00 0.00 0.00 100 1016.0
20180919095919 53 25 2.0 0.0 0.00 0.00 0.00 100 1015.9
20180919095339 53 25 0.0 0.0 0.00 0.00 0.00 100 1016.2
20180919094842 53 25 0.0 0.0 0.00 0.00 0.00 100 1016.0
20180919094346 53 25 0.0 0.0 0.00 0.00 0.00 100 1016.0
20180919093850 53 25 2.0 0.0 0.00 0.00 0.00 100 1016.0
20180919093414 53 25 0.0 0.0 0.00 0.00 0.00 100 1015.9
20180919092847 53 25 1.0 0.0 0.00 0.00 0.00 100 1016.2
20180919092412 54 25 2.0 0.0 0.00 0.00 0.00 100 1015.8
20180919091855 54 25 3.0 0.0 0.00 0.00 0.00 100 1015.9
20180919091339 54 25 4.0 0.0 0.00 0.00 0.00 100 1015.8
20180919090858 54 25 4.0 0.0 0.00 0.00 0.00 100 1015.6
20180919090402 54 25 3.0 0.0 0.00 0.00 0.00 100 1015.5
20180919085912 54 25 0.0 0.0 0.00 0.00 0.00 100 1015.6
20180919085351 54 25 0.0 0.0 0.00 0.00 0.00 100 1015.5
20180919084856 54 25 0.0 0.0 0.00 0.00 0.00 100 1015.4
20180919084338 54 25 0.0 0.0 0.00 0.00 0.00 100 1015.4
20180919083842 54 25 0.0 0.0 0.00 0.00 0.00 100 1015.4
20180919083405 54 25 1.0 0.0 0.00 0.00 0.00 100 1015.5
20180919082836 55 25 0.0 0.0 0.00 0.00 0.00 100 1015.5
20180919082341 55 25 2.0 0.0 0.00 0.00 0.00 100 1015.3
20180919081840 55 25 2.0 0.0 0.00 0.00 0.00 100 1015.3
20180919081402 55 25 5.0 0.0 0.00 0.00 0.00 100 1015.5
20180919080845 55 25 2.0 0.0 0.00 0.00 0.00 100 1015.3
20180919080348 55 25 0.0 0.0 0.00 0.00 0.00 100 1015.3
20180919075841 54 25 1.0 0.0 0.00 0.00 0.00 100 1015.1
20180919075347 54 25 3.0 0.0 0.00 0.00 0.00 100 1015.2
20180919074850 54 25 2.0 0.0 0.00 0.00 0.00 100 1015.6
20180919074350 54 25 3.0 0.0 0.00 0.00 0.00 100 1015.3
20180919073852 54 25 1.0 0.0 0.00 0.00 0.00 100 1015.5
20180919073358 55 25 0.0 0.0 0.00 0.00 0.00 100 1015.6
20180919072851 55 25 2.0 0.0 0.00 0.00 0.00 100 1015.3
20180919072356 55 25 1.0 0.0 0.00 0.00 0.00 100 1015.3
20180919071838 55 25 0.0 0.0 0.00 0.00 0.00 100 1015.3
20180919071419 55 25 0.0 0.0 0.00 0.00 0.00 100 1015.5
20180919070839 55 25 0.0 0.0 0.00 0.00 0.00 100 1015.1
20180919070402 56 25 1.0 0.0 0.00 0.00 0.00 100 1015.7
20180919065854 56 25 0.0 0.0 0.00 0.00 0.00 100 1015.4
20180919065359 56 25 0.0 0.0 0.00 0.00 0.00 100 1015.3
20180919064838 56 25 0.0 0.0 0.00 0.00 0.00 100 1015.4
20180919064342 56 25 0.0 0.0 0.00 0.00 0.00 100 1015.4
20180919063908 57 25 3.0 0.0 0.00 0.00 0.00 100 1015.1
20180919063353 57 25 0.0 0.0 0.00 0.00 0.00 100 1015.1
20180919062845 57 25 0.0 0.0 0.00 0.00 0.00 100 1015.1
20180919062348 57 25 2.0 0.0 0.00 0.00 0.00 100 1015.4
20180919061848 57 25 1.0 0.0 0.00 0.00 0.00 100 1015.2
20180919061352 57 25 1.0 0.0 0.00 0.00 0.00 100 1015.6
20180919060836 57 25 2.0 0.0 0.00 0.00 0.00 100 1015.1
20180919060400 57 25 3.0 0.0 0.00 0.00 0.00 100 1015.2
20180919055835 57 25 3.0 0.0 0.00 0.00 0.00 100 1015.2
20180919055342 57 25 3.0 0.0 0.00 0.00 0.00 100 1015.2
20180919054847 57 25 4.0 0.0 0.00 0.00 0.00 100 1015.0
20180919054347 57 25 4.0 0.0 0.00 0.00 0.00 100 1015.0
20180919053850 57 25 1.0 0.0 0.00 0.00 0.00 100 1014.7
20180919053410 57 25 2.0 0.0 0.00 0.00 0.00 100 1014.6
20180919052859 57 25 3.0 0.0 0.00 0.00 0.00 100 1014.7
20180919052338 57 25 2.0 0.0 0.00 0.00 0.00 100 1014.8
20180919051857 57 25 1.0 0.0 0.00 0.00 0.00 100 1014.7
20180919051340 57 25 4.0 0.0 0.00 0.00 0.00 100 1014.9
20180919050842 57 25 0.0 0.0 0.00 0.00 0.00 100 1014.6
20180919050349 57 25 0.0 0.0 0.00 0.00 0.00 100 1014.7
20180919045840 57 25 1.0 0.0 0.00 0.00 0.00 100 1014.9
20180919045344 57 25 2.0 0.0 0.00 0.00 0.00 100 1014.9
20180919044906 57 25 3.0 0.0 0.00 0.00 0.00 100 1014.7
20180919044349 57 25 0.0 0.0 0.00 0.00 0.00 100 1014.5
20180919043850 57 25 1.0 0.0 0.00 0.00 0.00 100 1014.7
20180919043355 57 25 2.0 0.0 0.00 0.00 0.00 100 1014.7
20180919042847 57 25 0.0 0.0 0.00 0.00 0.00 100 1014.4
20180919042350 57 25 0.0 0.0 0.00 0.00 0.00 100 1014.3
20180919041851 57 25 0.0 0.0 0.00 0.00 0.00 100 1014.3
20180919041354 57 25 0.0 0.0 0.00 0.00 0.00 100 1014.5
20180919040838 57 25 0.0 0.0 0.00 0.00 0.00 100 1014.6
20180919040404 57 25 0.0 0.0 0.00 0.00 0.00 100 1014.3
20180919035838 57 25 0.0 0.0 0.00 0.00 0.00 100 1014.2
20180919035344 57 25 0.0 0.0 0.00 0.00 0.00 100 1014.6
20180919034847 57 25 0.0 0.0 0.00 0.00 0.00 100 1014.5
20180919034411 57 25 0.0 0.0 0.00 0.00 0.00 100 1014.5
20180919033851 57 25 0.0 0.0 0.00 0.00 0.00 100 1014.6
20180919033356 57 25 0.0 0.0 0.00 0.00 0.00 100 1014.6
20180919032845 57 25 0.0 0.0 0.00 0.00 0.00 100 1014.7
20180919032349 57 25 0.0 0.0 0.00 0.00 0.00 100 1014.3
20180919031853 57 25 0.0 0.0 0.00 0.00 0.00 100 1014.6
20180919031352 56 25 0.0 0.0 0.00 0.00 0.00 100 1014.3
20180919030914 56 25 0.0 0.0 0.00 0.00 0.00 100 1014.3